This is the latest recevied weather packets stored in our database for station/object KF0TNT. If no packets are shown the sender has not sent any weather packets the latest 1 day(s).
| Time | Temp. | Humidity | Pressure | Rain* | Wind** | Luminosity | Snow |
|---|---|---|---|---|---|---|---|
| 1777992986 | 0.56° C | 94% | 1015 hPa | 0 mm | 4.02 m/s, 330° | 31 W/m² | - |
| 1777992685 | 0.56° C | 94% | 1014.9 hPa | 0 mm | 4.47 m/s, 345° | 46 W/m² | - |
| 1777992382 | 0.56° C | 94% | 1014.9 hPa | 0 mm | 2.68 m/s, 331° | 30 W/m² | - |
| 1777992080 | 0.56° C | 94% | 1014.9 hPa | 0 mm | 4.02 m/s, 9° | 43 W/m² | - |
| 1777991778 | 0.56° C | 94% | 1015.1 hPa | 0 mm | 4.47 m/s, 30° | 25 W/m² | - |
| 1777991474 | 0.56° C | 94% | 1015.4 hPa | 0 mm | 2.68 m/s, 351° | 30 W/m² | - |
| 1777991172 | 0.56° C | 95% | 1015.5 hPa | 0 mm | 2.68 m/s, 5° | 31 W/m² | - |
| 1777990869 | 0.56° C | 95% | 1015.4 hPa | 0 mm | 2.68 m/s, 13° | 22 W/m² | - |
| 1777990566 | 0.56° C | 95% | 1015.4 hPa | 0 mm | 1.79 m/s, 347° | 22 W/m² | - |
| 1777990263 | 0.56° C | 95% | 1015.1 hPa | 0 mm | 3.13 m/s, 343° | 19 W/m² | - |
| 1777989960 | 0.56° C | 95% | 1015.1 hPa | 0 mm | 4.47 m/s, 9° | 30 W/m² | - |
| 1777989656 | 1.11° C | 95% | 1015.4 hPa | 0 mm | 3.58 m/s, 26° | 15 W/m² | - |
| 1777989353 | 1.11° C | 94% | 1015.3 hPa | 0 mm | 4.02 m/s, 18° | 22 W/m² | - |
| 1777989049 | 1.11° C | 94% | 1015.1 hPa | 0 mm | 1.34 m/s, 357° | 17 W/m² | - |
| 1777988745 | 1.11° C | 93% | 1015 hPa | 0 mm | 3.13 m/s, 341° | 18 W/m² | - |
| 1777988442 | 1.11° C | 93% | 1015.1 hPa | 0 mm | 3.13 m/s, 359° | 14 W/m² | - |
| 1777988139 | 1.67° C | 93% | 1014.9 hPa | 0 mm | 3.13 m/s, 13° | 11 W/m² | - |
| 1777987835 | 1.67° C | 92% | 1015.4 hPa | 0 mm | 3.58 m/s, 33° | 17 W/m² | - |
| 1777987532 | 1.67° C | 92% | 1014.9 hPa | 0 mm | 4.47 m/s, 351° | 17 W/m² | - |
| 1777987230 | 1.67° C | 92% | 1014.9 hPa | 0 mm | 4.02 m/s, 12° | 12 W/m² | - |
| 1777986926 | 2.22° C | 92% | 1014.9 hPa | 0 mm | 3.13 m/s, 14° | 16 W/m² | - |
| 1777986624 | 2.22° C | 92% | 1014.9 hPa | 0 mm | 3.58 m/s, 330° | 12 W/m² | - |
| 1777986322 | 2.22° C | 93% | 1014.6 hPa | 0 mm | 2.68 m/s, 10° | 7 W/m² | - |
| 1777986020 | 2.22° C | 92% | 1014.6 hPa | 0 mm | 2.68 m/s, 1° | 5 W/m² | - |
| 1777985716 | 2.22° C | 92% | 1014.5 hPa | 0 mm | 2.24 m/s, 13° | 6 W/m² | - |
* Rain latest hour (hover to see other rain measurements)
** Current wind speed in m/s (hover to see current wind gust speed)